GFSNE_925_spd_303.txt.gz
Wind_Speed
28 28 26 25 25 21 16 14 8 4 5 8 12 19 15 15 17 11 19 28 3 6 15 20 20 22 25 35 40 40 41 42 44 45 43 41 39 39
27 31 28 29 26 24 22 17 10 10 1 10 11 12 17 15 20 16 18 27 27 6 9 14 19 22 23 25 31 38 41 40 42 44 43 40 40 40
30 31 29 30 31 27 25 23 18 16 4 8 12 17 23 21 21 20 20 23 29 33 25 13 5 10 9 24 21 27 36 40 42 44 43 41 41 40
29 27 32 29 32 29 28 26 23 24 11 7 12 17 20 20 23 23 19 25 24 30 36 29 27 18 9 17 24 30 36 34 42 44 44 43 45 42
23 22 29 33 30 30 30 28 24 19 19 12 10 15 16 23 17 17 26 25 27 26 28 32 37 30 27 25 21 18 21 31 34 47 50 49 48 42
25 21 26 29 28 29 27 27 26 21 19 14 14 13 14 19 15 17 16 30 29 28 28 28 32 30 29 28 27 26 22 21 22 23 24 41 45 40
23 25 24 29 29 24 24 26 26 22 18 17 14 17 20 18 21 18 14 11 25 24 25 28 30 21 24 25 26 23 25 24 20 15 13 13 13 17
23 25 25 28 30 30 19 20 25 24 22 20 18 16 19 20 20 18 18 14 3 22 19 28 24 24 25 21 17 16 18 15 18 17 10 11 2 12
22 25 25 27 31 29 24 17 20 22 21 18 18 17 18 19 17 17 18 16 13 17 13 14 20 20 18 15 14 13 12 12 11 8 10 9 5 4
22 21 26 26 31 31 23 21 19 19 17 16 15 13 14 16 15 13 13 6 9 15 15 10 12 12 11 12 12 11 9 7 3 3 5 5 7 5
21 20 26 27 29 30 23 22 19 21 19 13 15 17 12 21 19 14 16 12 7 10 18 8 12 7 7 7 7 8 8 7 6 6 3 4 5 6
21 22 24 28 27 28 23 23 21 21 20 17 15 14 14 16 18 16 14 12 12 5 15 7 10 9 3 5 4 4 6 7 7 5 4 4 5 11
23 25 25 28 25 25 23 23 21 18 17 16 16 16 17 17 17 16 14 12 10 7 11 8 8 8 5 5 4 4 3 5 6 7 7 6 8 12
22 23 24 25 23 21 23 22 20 18 18 17 18 19 19 20 18 16 13 12 8 6 7 7 5 8 8 6 4 7 7 8 6 5 5 7 8 8
21 20 22 22 22 22 22 23 22 22 20 19 19 18 18 18 16 16 15 13 9 5 5 6 6 7 7 6 8 9 7 6 9 5 4 6 7 8
23 22 22 22 21 22 23 24 23 23 22 21 19 19 18 18 18 18 15 17 13 13 8 6 6 7 9 9 10 12 11 7 6 10 11 12 13 13
21 23 25 25 25 24 24 23 22 23 22 21 21 20 19 18 18 17 16 15 14 14 14 12 11 10 10 12 12 10 11 10 10 10 10 11 12 13
23 24 25 25 25 25 25 23 24 24 23 21 20 20 20 20 20 18 16 15 14 14 14 15 15 14 13 11 10 9 9 9 11 12 13 14 16 16
26 25 24 25 25 24 24 24 24 24 21 20 20 20 20 19 19 18 18 17 16 16 15 15 13 11 7 7 10 4 12 15 17 16 14 15 18 18
28 26 25 25 25 24 24 23 24 23 23 22 20 20 19 19 18 18 18 17 17 18 17 16 14 12 12 8 11 17 13 15 14 17 18 18 21 23
28 27 26 26 26 24 23 23 23 23 22 21 20 20 19 18 17 17 17 16 16 14 15 15 16 17 15 12 10 15 15 17 19 21 21 19 19 19
28 26 26 25 25 24 25 26 25 24 23 23 22 21 20 18 18 18 18 18 18 17 16 19 19 17 13 11 14 16 17 17 19 15 16 19 20 7
29 27 27 27 26 26 26 27 25 24 23 22 22 22 21 21 20 19 19 21 19 17 19 17 17 15 12 12 14 15 17 17 17 17 17 17 17 20

GFSNE_925_spd_306.txt.gz
Wind_Speed
29 27 29 25 27 25 22 17 6 4 4 7 10 21 18 17 15 15 15 22 2 13 8 14 32 35 36 43 44 44 42 41 39 37 39 39 37 37
28 23 30 30 29 28 27 21 14 7 4 12 8 17 19 15 15 15 17 23 26 17 5 17 14 29 29 30 34 38 39 39 38 36 35 37 37 36
32 23 30 33 28 29 30 26 19 15 1 8 12 18 20 21 20 21 24 22 30 29 19 13 9 13 16 23 28 33 31 35 35 34 33 34 34 36
29 24 27 32 32 28 31 30 25 18 11 5 15 19 23 21 25 24 18 24 26 27 23 31 32 27 10 10 21 28 31 30 33 33 31 33 35 37
26 27 25 32 32 33 28 30 28 23 18 12 12 18 16 25 22 21 25 24 23 23 27 31 34 38 33 27 17 15 21 27 29 31 31 31 32 35
23 27 24 31 31 32 23 25 28 25 20 19 14 17 17 24 19 17 19 27 26 27 24 25 26 32 33 34 33 31 30 21 16 16 21 29 37 39
20 26 23 29 31 32 27 18 28 23 21 19 17 16 20 16 20 19 13 5 22 23 24 26 26 29 29 31 28 29 33 33 33 33 30 29 31 33
20 24 25 29 34 31 29 14 25 24 21 19 16 16 18 20 21 18 15 11 3 20 16 23 24 28 26 25 21 27 27 25 24 26 29 29 25 21
23 25 27 28 33 33 26 24 22 23 18 18 16 14 18 20 21 18 18 11 11 19 10 13 20 23 20 21 22 23 21 21 22 21 20 19 20 18
25 26 30 29 32 32 26 24 23 28 20 15 15 16 19 25 24 18 21 6 13 22 16 8 16 16 17 20 19 18 20 18 16 14 15 16 16 12
25 27 31 29 29 30 26 24 24 29 26 19 19 18 20 20 23 21 23 18 7 11 23 8 15 8 15 16 16 17 19 17 16 13 9 7 8 8
24 25 26 29 26 27 26 25 24 26 26 25 24 23 22 21 23 22 20 16 16 7 21 9 15 11 2 14 13 15 15 15 13 13 11 9 5 4
23 23 26 27 25 25 25 25 24 22 22 21 21 23 23 25 23 22 20 16 14 7 13 10 15 14 7 5 12 14 13 13 12 11 11 9 5 1
26 24 26 25 23 23 25 24 23 24 22 22 21 22 22 24 24 22 20 17 10 10 12 12 8 13 12 9 6 13 15 11 9 8 5 6 7 6
25 24 24 24 24 24 24 25 26 25 23 22 21 22 22 22 21 21 20 17 15 12 9 12 11 11 11 8 8 9 14 13 11 10 6 4 5 5
26 25 25 24 25 25 25 26 25 25 23 22 21 21 21 21 20 21 17 20 15 19 16 16 15 13 11 9 8 9 10 5 11 11 9 8 7 7
24 25 27 28 28 28 27 26 26 26 25 23 21 22 21 21 21 20 18 17 14 16 16 18 17 14 12 11 6 7 9 10 11 11 11 12 11 10
25 27 28 28 28 27 28 26 28 28 27 25 23 22 21 20 20 19 18 17 15 16 16 19 20 16 15 11 10 8 10 12 14 14 13 13 13 13
29 27 27 27 27 26 26 26 27 28 26 25 24 23 22 21 20 18 17 16 15 15 15 15 15 12 4 5 9 9 13 12 13 14 13 12 15 17
30 28 27 27 27 27 27 27 28 27 27 25 24 23 23 23 20 20 19 17 17 15 14 14 14 12 4 2 4 16 14 14 14 16 18 17 18 18
30 28 28 28 28 28 28 27 27 26 26 26 25 25 24 23 21 20 21 22 20 16 16 17 20 17 16 6 5 10 15 14 12 15 17 15 15 15
30 29 29 29 29 29 28 28 27 27 27 27 27 28 29 27 24 24 23 22 21 19 19 21 21 19 15 12 11 16 16 18 16 15 14 13 14 3
31 30 30 30 30 29 29 28 26 26 27 28 29 30 32 29 27 25 25 23 22 22 23 20 21 20 18 18 16 15 15 19 20 21 20 14 13 15

GFSNE_925_spd_309.txt.gz
Wind_Speed
29 29 27 26 29 25 23 21 11 5 6 6 9 15 15 12 12 12 15 23 12 2 11 13 12 15 27 37 41 46 49 49 44 40 38 40 42 43
25 30 29 30 29 30 24 25 20 10 4 10 8 11 14 11 12 17 16 19 26 15 4 5 15 21 20 26 39 43 46 48 47 43 41 39 40 41
23 29 26 32 29 32 28 29 24 17 4 8 10 15 17 18 15 16 18 20 22 26 24 10 6 7 19 23 33 41 44 44 45 43 43 39 40 40
22 25 26 31 30 32 29 29 28 24 10 7 14 13 18 18 18 19 20 21 22 25 31 33 26 14 7 9 22 39 43 42 40 41 40 38 36 37
26 26 21 32 30 32 28 24 27 24 23 11 11 13 12 23 18 22 24 24 23 22 26 26 29 27 29 13 5 18 38 40 37 35 35 37 33 31
25 28 24 29 29 30 25 23 23 24 19 15 12 13 13 22 17 14 16 27 26 25 26 24 25 27 33 33 30 21 23 31 36 33 34 40 33 29
24 29 25 26 26 26 26 23 25 20 17 16 14 16 16 15 19 17 13 7 24 26 25 25 24 27 27 28 27 24 37 29 22 30 33 33 33 34
23 26 25 28 32 26 23 21 21 23 16 16 15 17 18 18 22 17 13 11 3 18 16 24 25 25 24 23 22 28 28 30 34 35 30 27 28 30
23 26 27 27 28 28 24 21 22 23 20 17 15 15 17 25 20 19 16 16 9 16 8 15 19 23 21 20 18 21 26 23 26 26 27 31 32 33
21 23 28 27 28 27 25 23 23 24 25 23 22 18 18 22 22 17 14 7 17 24 9 7 16 18 19 21 23 22 18 15 21 21 20 22 21 22
22 24 28 28 26 26 24 23 23 27 23 21 21 22 23 23 23 23 23 14 6 15 18 6 15 9 18 17 16 17 19 21 19 14 13 15 15 17
23 24 26 27 25 26 25 24 23 25 25 25 25 25 26 25 25 25 19 15 8 7 20 7 15 8 3 15 18 17 16 17 16 14 10 10 10 11
24 26 28 26 25 26 26 27 25 23 22 21 22 24 25 27 26 25 22 15 16 10 14 6 16 12 5 3 14 18 15 14 12 13 13 14 11 8
25 26 26 25 24 25 27 25 25 27 24 22 22 23 23 26 26 24 23 22 14 12 15 17 10 14 11 7 5 14 13 16 14 14 13 12 12 12
25 24 23 24 24 26 26 27 29 29 26 24 24 23 24 24 25 26 23 21 22 21 18 17 14 11 10 7 5 9 8 11 15 12 9 7 6 5
27 26 25 25 26 27 28 30 29 28 26 23 23 23 25 25 25 24 21 22 21 23 19 17 14 11 10 6 7 10 12 7 11 10 8 7 6 4
23 23 27 28 28 29 29 29 28 28 26 25 24 23 25 25 24 24 22 21 14 15 20 22 20 14 15 12 6 11 10 8 10 10 9 9 7 5
27 28 28 28 28 28 28 27 27 28 28 25 25 23 23 23 22 24 23 20 17 17 17 18 17 18 13 9 9 10 12 11 12 11 10 9 10 7
30 28 27 27 27 27 27 27 26 26 25 26 26 26 25 25 24 21 22 19 19 19 20 17 19 12 3 2 7 7 13 13 13 13 12 11 11 14
30 28 27 27 28 27 27 27 26 27 28 28 28 28 28 25 25 24 24 20 18 17 18 20 20 17 8 3 4 13 11 11 12 14 14 13 13 12
30 29 29 28 27 26 27 27 26 27 28 29 30 30 30 28 27 22 21 22 20 18 15 18 21 14 10 8 6 11 18 15 12 12 13 13 10 8
30 30 30 28 28 28 28 27 28 30 31 30 30 30 30 28 24 23 23 21 20 19 19 22 21 19 19 16 12 15 19 21 16 12 8 7 7 3
31 30 30 30 29 29 28 29 30 30 30 30 30 30 29 24 25 24 22 20 20 21 22 21 23 24 23 19 18 19 22 23 23 22 21 18 14 12

GFSNE_925_spd_312.txt.gz
Wind_Speed
22 27 23 27 26 26 24 21 12 6 8 6 5 14 13 9 10 9 15 19 14 8 12 11 11 8 4 15 25 36 33 38 40 40 40 38 38 40
24 21 21 27 26 27 27 23 19 14 4 5 5 13 13 9 6 11 12 16 23 20 9 6 10 14 9 17 14 21 37 36 38 41 41 40 39 39
25 22 20 26 26 27 30 24 22 20 6 6 10 12 13 15 11 11 14 15 19 21 21 12 4 4 15 18 23 19 22 38 39 41 42 41 39 40
26 25 21 26 26 27 27 25 24 24 16 8 11 13 12 15 15 16 15 18 17 17 21 24 18 8 4 11 15 22 24 33 42 39 42 42 41 39
26 25 23 25 24 26 27 23 26 23 20 12 10 14 7 19 14 16 20 21 21 21 22 23 24 21 14 9 9 12 22 31 40 39 40 42 42 41
26 24 23 23 25 24 22 23 23 22 20 17 12 12 12 18 11 10 14 24 24 23 24 24 25 26 26 24 20 11 12 26 31 38 40 41 40 40
25 26 23 23 24 19 19 20 23 20 18 16 14 13 15 13 15 13 8 10 25 25 26 23 24 25 26 30 25 25 17 10 20 39 40 39 38 39
23 27 26 24 26 21 19 17 19 24 17 13 13 13 15 17 18 14 12 4 3 22 17 24 25 27 29 25 23 23 27 26 23 16 37 35 33 36
22 25 26 26 26 25 21 19 18 21 22 20 16 16 13 22 18 13 16 14 9 13 8 16 23 28 28 26 21 23 24 27 31 29 31 31 31 32
19 23 25 26 27 24 22 19 19 21 21 20 21 20 22 21 17 11 8 14 20 18 9 7 20 22 20 23 24 25 21 21 26 21 27 35 34 34
20 24 26 25 24 24 22 20 20 23 18 16 17 17 18 22 21 20 18 11 7 13 15 5 13 14 24 24 21 21 22 21 16 16 23 30 26 27
20 22 24 22 24 24 24 21 19 21 21 22 20 20 21 22 23 22 22 12 5 6 15 7 10 7 4 19 20 19 19 18 20 19 16 18 15 19
21 23 25 23 22 24 24 24 21 19 18 17 19 23 24 24 25 26 19 20 15 14 13 4 14 10 5 3 16 20 17 16 16 18 18 17 17 10
22 23 23 22 21 23 24 22 22 22 21 19 20 22 23 25 23 22 22 21 18 16 14 13 7 13 8 4 5 13 20 17 16 16 18 18 16 12
21 21 21 21 22 26 23 22 25 24 21 21 20 21 22 22 21 21 20 19 19 19 18 15 11 11 12 9 4 11 7 17 15 13 12 12 11 10
25 26 25 24 25 25 26 27 26 25 23 21 21 22 23 24 24 23 22 18 21 21 22 19 16 13 12 12 13 14 14 6 12 11 10 8 7 6
22 22 26 28 28 28 27 27 27 27 27 26 25 24 24 24 23 22 20 19 15 14 20 22 16 16 15 10 13 13 13 12 12 12 9 8 4 3
25 26 27 26 27 26 26 26 27 29 28 27 26 25 24 24 23 21 22 19 16 18 19 21 20 16 12 13 12 13 13 11 11 10 9 8 5 4
29 27 26 26 25 25 25 25 25 27 27 28 27 26 26 27 26 20 19 16 17 19 21 22 16 13 4 2 6 11 13 12 11 11 9 8 9 11
29 27 26 26 26 26 27 27 28 29 30 29 28 28 28 27 24 20 22 20 18 19 21 23 20 15 6 3 4 14 13 13 12 12 11 13 11 7
28 27 27 26 26 26 27 28 28 29 29 29 29 29 28 27 22 22 22 23 21 19 17 18 19 14 11 10 10 16 16 10 9 9 10 10 9 6
27 29 27 27 28 28 28 28 29 30 30 29 28 28 27 24 21 20 20 19 19 18 20 21 19 19 22 19 15 17 21 20 18 16 17 12 6 4
29 27 29 28 28 28 29 29 28 28 28 27 27 26 24 23 20 18 18 19 21 22 23 22 22 23 24 22 19 22 22 23 23 21 17 14 12 9